Smithers, British Columbia

12:22 AM PDT on July 26, 2017 (GMT -0700)
Smithers

Weather History for CYYD - January, 2013

Change the Weather History Date:

Thursday, January 17, 2013

  Actual Average Record
Temperature  
Mean Temperature 34 °F -  
Max Temperature 45 °F 28 °F 45 °F (2013)
Min Temperature 24 °F 12 °F -25 °F (2012)
Degree Days  
Heating Degree Days 30    
Moisture  
Dew Point 31 °F    
Average Humidity 74    
Maximum Humidity 93    
Minimum Humidity 49    
Precipitation  
Precipitation 0.00 in 0.05 in - ()
Sea Level Pressure  
Sea Level Pressure 29.92 in    
Wind  
Wind Speed 6 mph ()    
Max Wind Speed 24 mph    
Max Gust Speed 53 mph    
Visibility 11.1 miles    
Events Rain    
Averages and records for this station are not official NWS values.
T = Trace of Precipitation, MM = Missing Value Source: Averaged Metar Reports

Daily Weather History Graph

Daily Weather History Graph

Search for Another Location

Airport or City:

Trip Planner

Search our weather history database for the weather conditions in past years. The results will help you decide how hot, cold, wet, or windy it might be!

Date:

Astronomy

Jan. 17, 2013 Rise Set
Actual Time 8:40 AM PST 4:37 PM PST
Civil Twilight 7:58 AM PST 5:20 PM PST
Nautical Twilight 7:13 AM PST 6:05 PM PST
Astronomical Twilight 6:29 AM PST 6:48 PM PST
Moon 10:37 AM PST (1/17) No Moon Set
Length of Visible Light 9h 21m
Length of Day
7h 57m
Waxing Crescent, 39% of the Moon is Illuminated
Jan 17
Waxing Crescent
Jan 18
First Quarter
Jan 26
Full
Feb 3
Last Quarter
Feb 9
New

Hourly Weather History & Observations

Time (PST) Temp. Windchill Dew Point Humidity Pressure Visibility Wind Dir Wind Speed Gust Speed Precip Events Conditions
12:00 AM 32.0 °F 25.6 °F 30.2 °F 93% 30.11 in 9.0 mi Variable 6.9 mph - N/A   Mostly Cloudy
1:00 AM 33.8 °F 29.6 °F 32.0 °F 93% 30.10 in 9.0 mi Variable 4.6 mph - N/A   Overcast
2:00 AM 33.8 °F 26.4 °F 32.0 °F 93% 30.09 in 9.0 mi Variable 9.2 mph - N/A   Mostly Cloudy
3:00 AM 35.6 °F 29.2 °F 32.0 °F 87% 30.05 in 9.0 mi Variable 8.1 mph - N/A   Partly Cloudy
4:00 AM 35 °F - 32 °F 84% 30.03 in 10 mi WNW 3.5 mph - -  
4:00 AM 35.6 °F - 32.0 °F 87% 30.03 in 9.0 mi Calm Calm - N/A   Mostly Cloudy
4:59 AM 33.8 °F 24.3 °F 32.0 °F 93% 30.01 in 9.0 mi Variable 13.8 mph - N/A   Scattered Clouds
5:00 AM 33.8 °F 26.4 °F 32.0 °F 93% 30.02 in 9.0 mi Variable 9.2 mph 18.4 mph N/A   Scattered Clouds
6:00 AM 33.8 °F - 32.0 °F 93% 29.98 in 9.0 mi Variable 2.3 mph - N/A   Clear
7:00 AM 35.6 °F 32.8 °F 32.0 °F 87% 29.94 in 25.0 mi SE 3.5 mph - N/A   Mostly Cloudy
8:00 AM 41.0 °F 35.8 °F 26.6 °F 57% 29.89 in 25.0 mi Variable 8.1 mph - N/A   Overcast
8:09 AM 44.6 °F 36.1 °F 26.6 °F 49% 29.87 in 25.0 mi WSW 21.9 mph 52.9 mph N/A   Overcast
8:38 AM 42.8 °F 37.5 °F 30.2 °F 61% 29.94 in 25.0 mi NNW 9.2 mph - N/A   Overcast
9:00 AM 41.0 °F 39.0 °F 28.4 °F 61% 29.94 in 25.0 mi ENE 3.5 mph - N/A   Mostly Cloudy
10:00 AM 40 °F - 29 °F 55% 29.91 in 10 mi SE 10.4 mph - -  
10:00 AM 39.2 °F 31.6 °F 28.4 °F 65% 29.91 in 25.0 mi SSE 12.7 mph 19.6 mph N/A   Mostly Cloudy
11:00 AM 39.2 °F 35.9 °F 30.2 °F 70% 29.91 in 25.0 mi SW 4.6 mph - N/A   Mostly Cloudy
12:00 PM 39.2 °F 35.9 °F 32.0 °F 75% 29.91 in 20.0 mi SW 4.6 mph - N/A   Mostly Cloudy
1:00 PM 39.2 °F 37.0 °F 32.0 °F 75% 29.91 in 20.0 mi West 3.5 mph - N/A   Overcast
2:00 PM 39.2 °F 35.9 °F 32.0 °F 75% 29.91 in 25.0 mi SSW 4.6 mph - N/A   Mostly Cloudy
3:00 PM 37.4 °F 33.8 °F 32.0 °F 81% 29.90 in 25.0 mi Variable 4.6 mph - N/A   Mostly Cloudy
4:00 PM 38 °F - 33 °F 74% 29.90 in 10 mi West 3.5 mph - -   Overcast
4:00 PM 37.4 °F - 32.0 °F 81% 29.89 in 25.0 mi Calm Calm - N/A   Mostly Cloudy
5:00 PM 37.4 °F 32.8 °F 32.0 °F 81% 29.90 in 25.0 mi Variable 5.8 mph - N/A   Mostly Cloudy
6:00 PM 39.2 °F 35.9 °F 32.0 °F 75% 29.88 in 20.0 mi Variable 4.6 mph - N/A   Mostly Cloudy
7:00 PM 37.4 °F 30.8 °F 32.0 °F 81% 29.86 in 20.0 mi Variable 9.2 mph - N/A   Mostly Cloudy
8:00 PM 41.0 °F - 32.0 °F 70% 29.84 in 20.0 mi Calm Calm - N/A   Mostly Cloudy
8:35 PM 41.0 °F - 32.0 °F 70% 29.83 in 9.0 mi Variable 2.3 mph - N/A Rain Light Rain
8:39 PM 39.2 °F 30.5 °F 32.0 °F 75% 29.84 in 9.0 mi Variable 16.1 mph - N/A Rain Light Rain
9:00 PM 41.0 °F 35.8 °F 32.0 °F 70% 29.83 in 9.0 mi Variable 8.1 mph - N/A Rain Light Rain
9:12 PM 41.0 °F - 30.2 °F 65% 29.83 in 9.0 mi Variable 2.3 mph - N/A   Overcast
9:55 PM 41.0 °F 38.0 °F 32.0 °F 70% 29.85 in 9.0 mi Variable 4.6 mph - N/A Rain Light Rain
10:00 PM 41.0 °F 34.7 °F 32.0 °F 70% 29.85 in 9.0 mi Variable 10.4 mph 21.9 mph N/A Rain Light Rain
10:07 PM 42.8 °F 33.3 °F 30.2 °F 61% 29.83 in 9.0 mi Variable 24.2 mph 39.1 mph N/A Rain Light Rain
10:45 PM 42.8 °F 37.5 °F 32.0 °F 66% 29.83 in 9.0 mi Variable 9.2 mph 18.4 mph N/A   Overcast
11:00 PM 42.8 °F 38.6 °F 30.2 °F 61% 29.83 in 9.0 mi Variable 6.9 mph - N/A   Overcast
11:34 PM 42.8 °F 38.0 °F 32.0 °F 66% 29.84 in 9.0 mi NE 8.1 mph - N/A Rain Light Rain
11:45 PM 42.8 °F - 32.0 °F 66% 29.85 in 9.0 mi Variable 2.3 mph - N/A   Overcast
11:57 PM 41.0 °F 39.0 °F 32.0 °F 70% 29.86 in 9.0 mi Variable 3.5 mph - N/A Rain Light Rain